Time,TemperatureF,DewpointF,PressureIn,WindDirection,WindDirectionDegrees,WindSpeedMPH,WindSpeedGustMPH,Humidity,HourlyPrecipIn,Conditions,Clouds,dailyrainin,SoftwareType,DateUTC
2013-01-14 00:00:00,47.8,47.5,29.91,ESE,122,0.0,0.0,99,0.00,,,0.02,Wunderground v.1.15,2013-01-14 05:00:00,
2013-01-14 00:01:00,47.9,47.6,29.90,ESE,120,0.0,0.0,99,0.00,,,0.00,Wunderground v.1.15,2013-01-14 05:01:00,
2013-01-14 00:04:00,47.8,47.5,29.90,ESE,121,0.0,0.0,99,0.00,,,0.00,Wunderground v.1.15,2013-01-14 05:04:00,
2013-01-14 00:10:00,47.8,47.5,29.91,SSE,151,0.0,0.0,99,0.00,,,0.00,Wunderground v.1.15,2013-01-14 05:10:00,
2013-01-14 00:15:00,47.9,47.6,29.90,SSE,150,0.0,0.0,99,0.00,,,0.00,Wunderground v.1.15,2013-01-14 05:15:00,
2013-01-14 00:21:00,47.9,47.6,29.89,SSE,149,0.0,0.0,99,0.00,,,0.00,Wunderground v.1.15,2013-01-14 05:21:00,
2013-01-14 00:27:00,47.9,47.6,29.90,SE,131,0.0,0.0,99,0.00,,,0.00,Wunderground v.1.15,2013-01-14 05:27:00,
2013-01-14 00:33:00,47.9,47.6,29.90,South,169,0.0,0.0,99,0.00,,,0.00,Wunderground v.1.15,2013-01-14 05:33:00,
2013-01-14 00:39:00,48.0,47.7,29.90,South,170,0.0,0.0,99,0.00,,,0.00,Wunderground v.1.15,2013-01-14 05:39:00,
2013-01-14 00:44:00,48.0,47.7,29.90,South,181,0.0,0.0,99,0.00,,,0.01,Wunderground v.1.15,2013-01-14 05:44:00,
2013-01-14 00:50:00,48.1,47.8,29.89,SE,130,0.0,0.0,99,0.00,,,0.01,Wunderground v.1.15,2013-01-14 05:50:00,
2013-01-14 00:56:00,48.1,47.8,29.89,ESE,120,0.0,0.0,99,0.00,,,0.01,Wunderground v.1.15,2013-01-14 05:56:00,
2013-01-14 01:02:00,48.1,47.8,29.90,ESE,120,0.0,0.0,99,0.00,,,0.01,Wunderground v.1.15,2013-01-14 06:02:00,
2013-01-14 01:08:00,48.1,47.8,29.90,SE,143,0.0,0.0,99,0.00,,,0.01,Wunderground v.1.15,2013-01-14 06:08:00,
2013-01-14 01:14:00,48.2,47.9,29.90,SE,131,0.0,0.0,99,0.00,,,0.01,Wunderground v.1.15,2013-01-14 06:14:00,
2013-01-14 01:19:00,48.2,47.9,29.90,SE,131,0.0,0.0,99,0.00,,,0.01,Wunderground v.1.15,2013-01-14 06:19:00,
2013-01-14 01:25:00,48.2,47.9,29.90,SE,131,0.0,0.0,99,0.00,,,0.01,Wunderground v.1.15,2013-01-14 06:25:00,
2013-01-14 01:30:00,48.3,48.0,29.90,SE,131,0.0,0.0,99,0.00,,,0.01,Wunderground v.1.15,2013-01-14 06:30:00,
2013-01-14 01:36:00,48.3,48.0,29.89,SSE,150,0.0,0.0,99,0.00,,,0.01,Wunderground v.1.15,2013-01-14 06:36:00,
2013-01-14 01:42:00,48.3,48.0,29.89,SE,143,0.0,1.0,99,0.00,,,0.01,Wunderground v.1.15,2013-01-14 06:42:00,
2013-01-14 01:48:00,48.3,48.0,29.89,SSE,158,0.0,1.0,99,0.00,,,0.01,Wunderground v.1.15,2013-01-14 06:48:00,
2013-01-14 01:53:00,48.3,48.0,29.91,South,170,0.0,1.0,99,0.00,,,0.01,Wunderground v.1.15,2013-01-14 06:53:00,
2013-01-14 01:59:00,48.4,48.1,29.90,South,170,0.0,1.0,99,0.00,,,0.01,Wunderground v.1.15,2013-01-14 06:59:00,
2013-01-14 02:04:00,48.4,48.1,29.91,South,170,0.0,0.0,99,0.00,,,0.01,Wunderground v.1.15,2013-01-14 07:04:00,
2013-01-14 02:09:00,48.4,48.1,29.91,South,170,0.0,0.0,99,0.00,,,0.01,Wunderground v.1.15,2013-01-14 07:09:00,
2013-01-14 02:14:00,48.4,48.1,29.91,South,170,0.0,0.0,99,0.00,,,0.01,Wunderground v.1.15,2013-01-14 07:14:00,
2013-01-14 02:19:00,48.4,48.1,29.91,South,170,0.0,0.0,99,0.00,,,0.01,Wunderground v.1.15,2013-01-14 07:19:00,
2013-01-14 02:24:00,48.4,48.1,29.91,South,170,0.0,0.0,99,0.00,,,0.01,Wunderground v.1.15,2013-01-14 07:24:00,
2013-01-14 02:29:00,48.4,48.1,29.90,South,170,0.0,0.0,99,0.00,,,0.01,Wunderground v.1.15,2013-01-14 07:29:00,
2013-01-14 02:34:00,48.4,48.1,29.90,South,170,0.0,0.0,99,0.00,,,0.01,Wunderground v.1.15,2013-01-14 07:34:00,
2013-01-14 02:39:00,48.4,48.1,29.91,South,170,0.0,0.0,99,0.00,,,0.01,Wunderground v.1.15,2013-01-14 07:39:00,
2013-01-14 02:44:00,48.4,48.1,29.90,South,170,0.0,0.0,99,0.00,,,0.01,Wunderground v.1.15,2013-01-14 07:44:00,
2013-01-14 02:49:00,48.4,48.1,29.90,South,170,0.0,0.0,99,0.00,,,0.01,Wunderground v.1.15,2013-01-14 07:49:00,
2013-01-14 02:54:00,48.4,48.1,29.90,South,170,0.0,0.0,99,0.00,,,0.01,Wunderground v.1.15,2013-01-14 07:54:00,
2013-01-14 02:59:00,48.4,48.1,29.90,South,170,0.0,0.0,99,0.00,,,0.01,Wunderground v.1.15,2013-01-14 07:59:00,
2013-01-14 03:04:00,48.3,48.0,29.89,South,170,0.0,0.0,99,0.00,,,0.01,Wunderground v.1.15,2013-01-14 08:04:00,
2013-01-14 03:09:00,48.3,48.0,29.90,South,170,0.0,0.0,99,0.00,,,0.01,Wunderground v.1.15,2013-01-14 08:09:00,
2013-01-14 03:14:00,48.2,47.9,29.89,South,170,0.0,0.0,99,0.00,,,0.01,Wunderground v.1.15,2013-01-14 08:14:00,
2013-01-14 03:19:00,48.2,47.9,29.89,South,170,0.0,0.0,99,0.00,,,0.01,Wunderground v.1.15,2013-01-14 08:19:00,
2013-01-14 03:24:00,48.1,47.8,29.89,South,172,0.0,0.0,99,0.00,,,0.01,Wunderground v.1.15,2013-01-14 08:24:00,
2013-01-14 03:29:00,48.1,47.8,29.89,South,172,0.0,0.0,99,0.00,,,0.01,Wunderground v.1.15,2013-01-14 08:29:00,
2013-01-14 03:34:00,48.1,47.8,29.89,South,172,0.0,0.0,99,0.00,,,0.01,Wunderground v.1.15,2013-01-14 08:34:00,
2013-01-14 03:39:00,48.1,47.8,29.89,South,172,0.0,0.0,99,0.00,,,0.01,Wunderground v.1.15,2013-01-14 08:39:00,
2013-01-14 03:44:00,48.0,47.7,29.89,South,172,0.0,0.0,99,0.00,,,0.01,Wunderground v.1.15,2013-01-14 08:44:00,
2013-01-14 03:49:00,48.0,47.7,29.89,South,172,0.0,0.0,99,0.00,,,0.01,Wunderground v.1.15,2013-01-14 08:49:00,
2013-01-14 03:54:00,48.0,47.7,29.89,South,172,0.0,0.0,99,0.00,,,0.01,Wunderground v.1.15,2013-01-14 08:54:00,
2013-01-14 03:59:00,48.1,47.8,29.89,South,172,0.0,0.0,99,0.00,,,0.01,Wunderground v.1.15,2013-01-14 08:59:00,
2013-01-14 04:04:00,48.1,47.8,29.89,South,172,0.0,0.0,99,0.00,,,0.01,Wunderground v.1.15,2013-01-14 09:04:00,
2013-01-14 04:09:00,48.1,47.8,29.89,South,172,0.0,0.0,99,0.00,,,0.01,Wunderground v.1.15,2013-01-14 09:09:00,
2013-01-14 04:14:00,48.1,47.8,29.89,South,172,0.0,0.0,99,0.00,,,0.01,Wunderground v.1.15,2013-01-14 09:14:00,
2013-01-14 04:19:00,48.1,47.8,29.89,South,172,0.0,0.0,99,0.00,,,0.01,Wunderground v.1.15,2013-01-14 09:19:00,
2013-01-14 04:24:00,48.1,47.8,29.89,South,172,0.0,0.0,99,0.00,,,0.01,Wunderground v.1.15,2013-01-14 09:24:00,
2013-01-14 04:29:00,48.1,47.8,29.89,SSE,166,0.0,1.0,99,0.00,,,0.01,Wunderground v.1.15,2013-01-14 09:29:00,
2013-01-14 04:34:00,48.0,47.7,29.89,SSE,166,0.0,1.0,99,0.00,,,0.01,Wunderground v.1.15,2013-01-14 09:34:00,
2013-01-14 04:39:00,48.0,47.7,29.89,SSE,165,0.0,1.0,99,0.00,,,0.01,Wunderground v.1.15,2013-01-14 09:39:00,
2013-01-14 04:44:00,48.0,47.7,29.88,SSE,166,0.0,0.0,99,0.00,,,0.01,Wunderground v.1.15,2013-01-14 09:44:00,
2013-01-14 04:49:00,48.0,47.7,29.88,SSE,166,0.0,0.0,99,0.00,,,0.01,Wunderground v.1.15,2013-01-14 09:49:00,
2013-01-14 04:54:00,48.0,47.7,29.88,SSE,166,0.0,0.0,99,0.00,,,0.01,Wunderground v.1.15,2013-01-14 09:54:00,
2013-01-14 04:59:00,48.1,47.8,29.88,SSE,166,0.0,0.0,99,0.00,,,0.01,Wunderground v.1.15,2013-01-14 09:59:00,
2013-01-14 05:04:00,48.1,47.8,29.87,SSE,166,0.0,0.0,99,0.00,,,0.01,Wunderground v.1.15,2013-01-14 10:04:00,
2013-01-14 05:09:00,48.1,47.8,29.87,SSE,166,0.0,0.0,99,0.00,,,0.01,Wunderground v.1.15,2013-01-14 10:09:00,
2013-01-14 05:14:00,48.1,47.8,29.87,SSE,166,0.0,0.0,99,0.00,,,0.01,Wunderground v.1.15,2013-01-14 10:14:00,
2013-01-14 05:19:00,48.2,47.9,29.86,SE,143,0.0,0.0,99,0.00,,,0.01,Wunderground v.1.15,2013-01-14 10:19:00,
2013-01-14 05:24:00,48.2,47.9,29.83,SE,134,2.0,3.0,99,0.00,,,0.01,Wunderground v.1.15,2013-01-14 10:24:00,
2013-01-14 05:29:00,48.3,48.0,29.86,NNE,23,0.0,3.0,99,0.00,,,0.01,Wunderground v.1.15,2013-01-14 10:29:00,
2013-01-14 05:34:00,48.3,48.0,29.84,SSW,207,0.0,2.0,99,0.00,,,0.01,Wunderground v.1.15,2013-01-14 10:34:00,
2013-01-14 05:39:00,48.4,48.1,29.86,SSW,200,1.0,2.0,99,0.00,,,0.01,Wunderground v.1.15,2013-01-14 10:39:00,
2013-01-14 05:44:00,48.5,48.5,29.84,South,181,1.0,4.0,100,0.00,,,0.01,Wunderground v.1.15,2013-01-14 10:44:00,
2013-01-14 05:50:00,48.6,48.6,29.85,West,270,1.0,4.0,100,0.00,,,0.01,Wunderground v.1.15,2013-01-14 10:50:00,
2013-01-14 05:55:00,48.6,48.6,29.82,SSE,161,3.0,3.0,100,0.00,,,0.01,Wunderground v.1.15,2013-01-14 10:55:00,
2013-01-14 06:00:00,48.7,48.7,29.79,ENE,71,2.0,9.0,100,0.00,,,0.01,Wunderground v.1.15,2013-01-14 11:00:00,
2013-01-14 06:05:00,48.8,48.8,29.80,East,82,1.0,3.0,100,0.00,,,0.01,Wunderground v.1.15,2013-01-14 11:05:00,
2013-01-14 06:10:00,48.9,48.9,29.79,South,180,0.0,3.0,100,0.00,,,0.01,Wunderground v.1.15,2013-01-14 11:10:00,
2013-01-14 06:15:00,49.1,49.1,29.82,WNW,287,5.0,5.0,100,0.00,,,0.01,Wunderground v.1.15,2013-01-14 11:15:00,
2013-01-14 06:20:00,49.3,49.3,29.84,West,265,1.0,6.0,100,0.00,,,0.01,Wunderground v.1.15,2013-01-14 11:20:00,
2013-01-14 06:25:00,49.5,49.5,29.88,NW,319,3.0,5.0,100,0.00,,,0.01,Wunderground v.1.15,2013-01-14 11:25:00,
2013-01-14 06:30:00,49.7,49.7,29.88,NW,311,4.0,6.0,100,0.00,,,0.01,Wunderground v.1.15,2013-01-14 11:30:00,
2013-01-14 06:35:00,49.7,49.7,29.89,NNW,345,4.0,6.0,100,0.00,,,0.01,Wunderground v.1.15,2013-01-14 11:35:00,
2013-01-14 06:40:00,49.8,49.8,29.90,North,6,1.0,6.0,100,0.00,,,0.01,Wunderground v.1.15,2013-01-14 11:40:00,
2013-01-14 06:45:00,49.9,49.9,29.90,NNW,327,1.0,3.0,100,0.00,,,0.01,Wunderground v.1.15,2013-01-14 11:45:00,
2013-01-14 06:50:00,49.9,49.9,29.89,NNW,328,0.0,3.0,100,0.00,,,0.01,Wunderground v.1.15,2013-01-14 11:50:00,
2013-01-14 06:55:00,50.0,50.0,29.89,North,358,0.0,2.0,100,0.00,,,0.01,Wunderground v.1.15,2013-01-14 11:55:00,
2013-01-14 07:00:00,50.0,50.0,29.91,WNW,292,1.0,2.0,100,0.00,,,0.01,Wunderground v.1.15,2013-01-14 12:00:00,
2013-01-14 07:05:00,50.1,50.1,29.91,NNW,329,2.0,2.0,100,0.00,,,0.01,Wunderground v.1.15,2013-01-14 12:05:00,
2013-01-14 07:10:00,50.1,50.1,29.90,NW,323,0.0,2.0,100,0.00,,,0.01,Wunderground v.1.15,2013-01-14 12:10:00,
2013-01-14 07:15:00,50.3,50.3,29.90,NW,326,0.0,2.0,100,0.00,,,0.01,Wunderground v.1.15,2013-01-14 12:15:00,
2013-01-14 07:20:00,50.3,50.3,29.90,SE,125,0.0,2.0,100,0.00,,,0.01,Wunderground v.1.15,2013-01-14 12:20:00,
2013-01-14 07:25:00,50.3,50.3,29.93,NNW,327,1.0,3.0,100,0.00,,,0.01,Wunderground v.1.15,2013-01-14 12:25:00,
2013-01-14 07:30:00,50.4,50.4,29.92,NNW,328,1.0,3.0,100,0.00,,,0.01,Wunderground v.1.15,2013-01-14 12:30:00,
2013-01-14 07:35:00,50.5,50.5,29.92,NNW,330,0.0,2.0,100,0.00,,,0.01,Wunderground v.1.15,2013-01-14 12:35:00,
2013-01-14 07:40:00,50.5,50.5,29.92,NW,312,0.0,2.0,100,0.00,,,0.01,Wunderground v.1.15,2013-01-14 12:40:00,
2013-01-14 07:45:00,50.5,50.5,29.91,WSW,248,1.0,1.0,100,0.00,,,0.01,Wunderground v.1.15,2013-01-14 12:45:00,
2013-01-14 07:50:00,50.5,50.5,29.91,South,190,0.0,1.0,100,0.00,,,0.01,Wunderground v.1.15,2013-01-14 12:50:00,
2013-01-14 07:55:00,50.5,50.5,29.92,NNE,14,1.0,2.0,100,0.00,,,0.01,Wunderground v.1.15,2013-01-14 12:55:00,
2013-01-14 08:00:00,50.5,50.5,29.92,North,5,2.0,4.0,100,0.00,,,0.01,Wunderground v.1.15,2013-01-14 13:00:00,
2013-01-14 08:05:00,50.5,50.5,29.92,NNW,342,0.0,2.0,100,0.00,,,0.01,Wunderground v.1.15,2013-01-14 13:05:00,
2013-01-14 08:10:00,50.5,50.5,29.92,West,277,1.0,2.0,100,0.00,,,0.01,Wunderground v.1.15,2013-01-14 13:10:00,
2013-01-14 08:15:00,50.4,50.4,29.91,West,277,0.0,1.0,100,0.00,,,0.01,Wunderground v.1.15,2013-01-14 13:15:00,
2013-01-14 08:20:00,50.4,50.4,29.91,West,276,0.0,1.0,100,0.00,,,0.01,Wunderground v.1.15,2013-01-14 13:20:00,
2013-01-14 08:25:00,50.5,50.5,29.93,West,281,2.0,2.0,100,0.00,,,0.01,Wunderground v.1.15,2013-01-14 13:25:00,
2013-01-14 08:30:00,50.6,50.6,29.94,WNW,293,2.0,3.0,100,0.00,,,0.01,Wunderground v.1.15,2013-01-14 13:30:00,
2013-01-14 08:35:00,50.6,50.6,29.95,West,281,3.0,3.0,100,0.00,,,0.01,Wunderground v.1.15,2013-01-14 13:35:00,
2013-01-14 08:40:00,50.8,50.8,29.95,WNW,285,3.0,4.0,100,0.00,,,0.01,Wunderground v.1.15,2013-01-14 13:40:00,
2013-01-14 08:45:00,50.9,50.9,29.95,West,276,2.0,4.0,100,0.00,,,0.01,Wunderground v.1.15,2013-01-14 13:45:00,
2013-01-14 08:50:00,51.0,51.0,29.94,WNW,287,3.0,6.0,100,0.00,,,0.01,Wunderground v.1.15,2013-01-14 13:50:00,
2013-01-14 08:55:00,51.1,51.1,29.94,WNW,284,4.0,4.0,100,0.00,,,0.01,Wunderground v.1.15,2013-01-14 13:55:00,
2013-01-14 09:00:00,51.2,51.2,29.95,WNW,297,3.0,4.0,100,0.00,,,0.01,Wunderground v.1.15,2013-01-14 14:00:00,
2013-01-14 09:05:00,51.2,51.2,29.95,West,280,3.0,6.0,100,0.00,,,0.01,Wunderground v.1.15,2013-01-14 14:05:00,
2013-01-14 09:10:00,51.3,51.3,29.95,West,281,2.0,6.0,100,0.00,,,0.01,Wunderground v.1.15,2013-01-14 14:10:00,
2013-01-14 09:15:00,51.3,51.3,29.94,West,271,2.0,4.0,100,0.00,,,0.01,Wunderground v.1.15,2013-01-14 14:15:00,
2013-01-14 09:20:00,51.3,51.3,29.94,WNW,289,1.0,4.0,100,0.00,,,0.01,Wunderground v.1.15,2013-01-14 14:20:00,
2013-01-14 09:25:00,51.4,51.4,29.95,NW,316,3.0,4.0,100,0.00,,,0.01,Wunderground v.1.15,2013-01-14 14:25:00,
2013-01-14 09:30:00,51.3,51.3,29.95,WNW,293,3.0,4.0,100,0.00,,,0.01,Wunderground v.1.15,2013-01-14 14:30:00,
2013-01-14 09:35:00,51.4,51.4,29.95,WNW,298,1.0,4.0,100,0.00,,,0.01,Wunderground v.1.15,2013-01-14 14:35:00,
2013-01-14 09:40:00,51.4,51.4,29.95,West,278,5.0,6.0,100,0.00,,,0.01,Wunderground v.1.15,2013-01-14 14:40:00,
2013-01-14 09:45:00,51.4,51.4,29.95,SW,231,4.0,5.0,100,0.00,,,0.01,Wunderground v.1.15,2013-01-14 14:45:00,
2013-01-14 09:50:00,51.6,51.6,29.96,West,278,3.0,5.0,100,0.00,,,0.01,Wunderground v.1.15,2013-01-14 14:50:00,
2013-01-14 09:55:00,51.7,51.7,29.96,West,273,4.0,5.0,100,0.00,,,0.01,Wunderground v.1.15,2013-01-14 14:55:00,
2013-01-14 10:00:00,51.7,51.7,29.96,WNW,298,2.0,7.0,100,0.00,,,0.01,Wunderground v.1.15,2013-01-14 15:00:00,
2013-01-14 10:05:00,51.8,51.8,29.97,WNW,290,4.0,6.0,100,0.00,,,0.01,Wunderground v.1.15,2013-01-14 15:05:00,
2013-01-14 10:10:00,52.0,52.0,29.97,WNW,285,5.0,6.0,100,0.00,,,0.01,Wunderground v.1.15,2013-01-14 15:10:00,
2013-01-14 10:15:00,52.1,52.1,29.98,WNW,290,0.0,5.0,100,0.00,,,0.01,Wunderground v.1.15,2013-01-14 15:15:00,
2013-01-14 10:20:00,52.3,52.3,29.97,WNW,291,2.0,5.0,100,0.00,,,0.01,Wunderground v.1.15,2013-01-14 15:20:00,
2013-01-14 10:25:00,52.5,52.2,29.97,West,274,4.0,4.0,99,0.00,,,0.01,Wunderground v.1.15,2013-01-14 15:25:00,
2013-01-14 10:30:00,52.7,52.4,29.97,West,272,1.0,5.0,99,0.00,,,0.01,Wunderground v.1.15,2013-01-14 15:30:00,
2013-01-14 10:35:00,52.8,52.5,29.98,West,281,2.0,7.0,99,0.00,,,0.01,Wunderground v.1.15,2013-01-14 15:35:00,
2013-01-14 10:40:00,53.0,52.7,29.98,WNW,290,5.0,7.0,99,0.00,,,0.01,Wunderground v.1.15,2013-01-14 15:40:00,
2013-01-14 10:45:00,52.9,52.6,29.98,WNW,286,3.0,5.0,99,0.00,,,0.01,Wunderground v.1.15,2013-01-14 15:45:00,
2013-01-14 10:50:00,53.1,52.8,29.98,NW,307,1.0,5.0,99,0.00,,,0.01,Wunderground v.1.15,2013-01-14 15:50:00,
2013-01-14 10:55:00,53.3,53.0,29.98,WNW,288,3.0,3.0,99,0.00,,,0.01,Wunderground v.1.15,2013-01-14 15:55:00,
2013-01-14 11:00:00,53.5,53.2,29.97,NW,307,1.0,4.0,99,0.00,,,0.02,Wunderground v.1.15,2013-01-14 16:00:00,
2013-01-14 11:05:00,53.6,53.3,29.97,West,264,3.0,4.0,99,0.00,,,0.02,Wunderground v.1.15,2013-01-14 16:05:00,
2013-01-14 11:10:00,53.8,53.5,29.98,WNW,284,0.0,4.0,99,0.00,,,0.02,Wunderground v.1.15,2013-01-14 16:10:00,
2013-01-14 11:15:00,54.1,53.5,29.97,NW,323,1.0,4.0,98,0.00,,,0.02,Wunderground v.1.15,2013-01-14 16:15:00,
2013-01-14 11:20:00,54.2,53.6,29.98,WNW,295,2.0,4.0,98,0.00,,,0.02,Wunderground v.1.15,2013-01-14 16:20:00,
2013-01-14 11:25:00,54.3,53.7,29.98,NNW,332,1.0,5.0,98,0.00,,,0.02,Wunderground v.1.15,2013-01-14 16:25:00,
2013-01-14 11:30:00,54.5,53.7,29.98,NW,321,2.0,3.0,97,0.00,,,0.02,Wunderground v.1.15,2013-01-14 16:30:00,
2013-01-14 11:35:00,54.6,53.8,29.99,NW,304,3.0,5.0,97,0.00,,,0.02,Wunderground v.1.15,2013-01-14 16:35:00,
2013-01-14 11:40:00,54.7,53.9,29.99,NW,323,2.0,3.0,97,0.00,,,0.02,Wunderground v.1.15,2013-01-14 16:40:00,
2013-01-14 11:45:00,54.9,53.8,29.97,NW,304,1.0,3.0,96,0.00,,,0.02,Wunderground v.1.15,2013-01-14 16:45:00,
2013-01-14 11:50:00,55.0,53.9,29.97,West,259,2.0,2.0,96,0.00,,,0.02,Wunderground v.1.15,2013-01-14 16:50:00,
2013-01-14 11:55:00,55.3,54.2,29.96,NNE,26,3.0,3.0,96,0.00,,,0.02,Wunderground v.1.15,2013-01-14 16:55:00,
2013-01-14 12:00:00,55.6,54.2,29.96,NNW,347,4.0,6.0,95,0.00,,,0.02,Wunderground v.1.15,2013-01-14 17:00:00,
2013-01-14 12:05:00,55.9,54.5,29.96,NNW,346,2.0,6.0,95,0.00,,,0.02,Wunderground v.1.15,2013-01-14 17:05:00,
2013-01-14 12:10:00,56.2,54.2,29.97,NNW,348,2.0,2.0,93,0.00,,,0.02,Wunderground v.1.15,2013-01-14 17:10:00,
2013-01-14 12:15:00,56.3,54.3,29.97,NNW,339,0.0,4.0,93,0.00,,,0.02,Wunderground v.1.15,2013-01-14 17:15:00,
2013-01-14 12:20:00,56.4,53.8,29.97,NNW,340,3.0,3.0,91,0.00,,,0.02,Wunderground v.1.15,2013-01-14 17:20:00,
2013-01-14 12:26:00,56.6,54.0,29.97,North,4,1.0,4.0,91,0.00,,,0.02,Wunderground v.1.15,2013-01-14 17:26:00,
2013-01-14 12:31:00,56.7,53.8,29.96,NNE,12,1.0,2.0,90,0.00,,,0.02,Wunderground v.1.15,2013-01-14 17:31:00,
2013-01-14 12:35:00,56.7,53.2,29.96,NNE,15,2.0,5.0,88,0.00,,,0.02,Wunderground v.1.15,2013-01-14 17:35:00,
2013-01-14 12:40:00,56.6,52.8,29.96,NNW,328,2.0,3.0,87,0.00,,,0.02,Wunderground v.1.15,2013-01-14 17:40:00,
2013-01-14 12:46:00,56.4,51.9,29.96,North,356,2.0,5.0,85,0.00,,,0.02,Wunderground v.1.15,2013-01-14 17:46:00,
2013-01-14 12:50:00,56.3,51.8,29.96,NNW,342,1.0,5.0,85,0.00,,,0.02,Wunderground v.1.15,2013-01-14 17:50:00,
2013-01-14 12:55:00,56.3,51.5,29.97,NNE,15,4.0,5.0,84,0.00,,,0.02,Wunderground v.1.15,2013-01-14 17:55:00,
2013-01-14 13:01:00,56.3,51.5,29.97,North,6,1.0,2.0,84,0.00,,,0.02,Wunderground v.1.15,2013-01-14 18:01:00,
2013-01-14 13:06:00,56.2,51.4,29.97,North,9,1.0,3.0,84,0.00,,,0.02,Wunderground v.1.15,2013-01-14 18:06:00,
2013-01-14 13:11:00,56.2,51.4,29.98,North,11,2.0,3.0,84,0.00,,,0.02,Wunderground v.1.15,2013-01-14 18:11:00,
2013-01-14 13:16:00,56.2,51.4,29.97,NNE,22,0.0,4.0,84,0.00,,,0.02,Wunderground v.1.15,2013-01-14 18:16:00,
2013-01-14 13:21:00,56.3,51.5,29.97,NNW,339,2.0,2.0,84,0.00,,,0.02,Wunderground v.1.15,2013-01-14 18:21:00,
2013-01-14 13:26:00,56.4,51.3,29.98,NNE,18,2.0,4.0,83,0.00,,,0.02,Wunderground v.1.15,2013-01-14 18:26:00,
2013-01-14 13:31:00,56.5,51.1,29.98,North,350,0.0,2.0,82,0.00,,,0.02,Wunderground v.1.15,2013-01-14 18:31:00,
2013-01-14 13:36:00,56.6,51.2,29.98,North,4,2.0,3.0,82,0.00,,,0.02,Wunderground v.1.15,2013-01-14 18:36:00,
2013-01-14 13:41:00,56.7,49.9,29.98,North,354,3.0,3.0,78,0.00,,,0.02,Wunderground v.1.15,2013-01-14 18:41:00,
2013-01-14 13:46:00,56.9,49.8,29.98,NNW,332,3.0,4.0,77,0.00,,,0.02,Wunderground v.1.15,2013-01-14 18:46:00,
2013-01-14 13:51:00,57.0,50.2,29.98,North,359,1.0,2.0,78,0.00,,,0.02,Wunderground v.1.15,2013-01-14 18:51:00,
2013-01-14 13:56:00,56.9,48.3,29.98,NNW,343,4.0,8.0,73,0.00,,,0.02,Wunderground v.1.15,2013-01-14 18:56:00,
2013-01-14 14:01:00,56.8,47.1,29.99,NW,323,3.0,4.0,70,0.00,,,0.02,Wunderground v.1.15,2013-01-14 19:01:00,
2013-01-14 14:06:00,56.7,46.6,29.99,NW,319,2.0,5.0,69,0.00,,,0.02,Wunderground v.1.15,2013-01-14 19:06:00,
2013-01-14 14:11:00,56.6,46.9,29.99,NNW,330,3.0,3.0,70,0.00,,,0.02,Wunderground v.1.15,2013-01-14 19:11:00,
2013-01-14 14:16:00,56.4,46.0,30.00,NNE,29,5.0,6.0,68,0.00,,,0.02,Wunderground v.1.15,2013-01-14 19:16:00,
2013-01-14 14:21:00,56.3,45.5,30.01,NNW,347,4.0,7.0,67,0.00,,,0.02,Wunderground v.1.15,2013-01-14 19:21:00,
2013-01-14 14:26:00,56.2,43.3,30.01,NNW,330,4.0,9.0,62,0.00,,,0.02,Wunderground v.1.15,2013-01-14 19:26:00,
2013-01-14 14:31:00,56.0,43.6,30.02,NNW,346,4.0,6.0,63,0.00,,,0.02,Wunderground v.1.15,2013-01-14 19:31:00,
2013-01-14 14:36:00,55.9,43.9,30.02,NNW,341,3.0,7.0,64,0.00,,,0.02,Wunderground v.1.15,2013-01-14 19:36:00,
2013-01-14 14:41:00,55.7,43.7,30.02,NNW,346,2.0,7.0,64,0.00,,,0.02,Wunderground v.1.15,2013-01-14 19:41:00,
2013-01-14 14:46:00,55.6,43.6,30.01,NNW,331,4.0,7.0,64,0.00,,,0.02,Wunderground v.1.15,2013-01-14 19:46:00,
2013-01-14 14:51:00,55.5,43.9,30.01,NNE,27,4.0,8.0,65,0.00,,,0.02,Wunderground v.1.15,2013-01-14 19:51:00,
2013-01-14 14:56:00,55.3,43.3,30.02,NNE,32,5.0,11.0,64,0.00,,,0.02,Wunderground v.1.15,2013-01-14 19:56:00,
2013-01-14 15:01:00,55.0,43.0,30.02,North,356,5.0,9.0,64,0.00,,,0.02,Wunderground v.1.15,2013-01-14 20:01:00,
2013-01-14 15:06:00,54.9,43.4,30.02,NNE,25,5.0,9.0,65,0.00,,,0.02,Wunderground v.1.15,2013-01-14 20:06:00,
2013-01-14 15:11:00,54.7,42.8,30.03,NNW,330,4.0,6.0,64,0.00,,,0.02,Wunderground v.1.15,2013-01-14 20:11:00,
2013-01-14 15:16:00,54.6,43.1,30.03,NNW,346,3.0,8.0,65,0.00,,,0.02,Wunderground v.1.15,2013-01-14 20:16:00,
2013-01-14 15:21:00,54.5,43.0,30.03,North,356,6.0,7.0,65,0.00,,,0.02,Wunderground v.1.15,2013-01-14 20:21:00,
2013-01-14 15:26:00,54.5,43.4,30.03,NW,311,2.0,7.0,66,0.00,,,0.02,Wunderground v.1.15,2013-01-14 20:26:00,
2013-01-14 15:31:00,54.4,42.9,30.03,North,354,4.0,9.0,65,0.00,,,0.02,Wunderground v.1.15,2013-01-14 20:31:00,
2013-01-14 15:36:00,54.4,42.9,30.04,North,1,2.0,9.0,65,0.00,,,0.02,Wunderground v.1.15,2013-01-14 20:36:00,
2013-01-14 15:41:00,54.3,42.8,30.04,NNW,348,3.0,3.0,65,0.00,,,0.02,Wunderground v.1.15,2013-01-14 20:41:00,
2013-01-14 15:46:00,54.3,43.2,30.03,NNW,347,1.0,5.0,66,0.00,,,0.02,Wunderground v.1.15,2013-01-14 20:46:00,
2013-01-14 15:51:00,54.2,42.7,30.04,North,4,1.0,2.0,65,0.00,,,0.02,Wunderground v.1.15,2013-01-14 20:51:00,
2013-01-14 15:56:00,54.2,43.1,30.03,North,352,2.0,5.0,66,0.00,,,0.02,Wunderground v.1.15,2013-01-14 20:56:00,
2013-01-14 16:01:00,54.0,42.5,30.03,NNE,13,2.0,3.0,65,0.00,,,0.02,Wunderground v.1.15,2013-01-14 21:01:00,
2013-01-14 16:06:00,53.9,42.8,30.03,NNW,328,1.0,8.0,66,0.00,,,0.02,Wunderground v.1.15,2013-01-14 21:06:00,
2013-01-14 16:11:00,53.8,42.7,30.04,NE,47,5.0,7.0,66,0.00,,,0.02,Wunderground v.1.15,2013-01-14 21:11:00,
2013-01-14 16:16:00,53.6,42.1,30.04,NE,54,9.0,9.0,65,0.00,,,0.02,Wunderground v.1.15,2013-01-14 21:16:00,
2013-01-14 16:21:00,53.4,41.1,30.04,NE,51,4.0,6.0,63,0.00,,,0.02,Wunderground v.1.15,2013-01-14 21:21:00,
2013-01-14 16:26:00,53.2,40.9,30.03,NE,54,4.0,9.0,63,0.00,,,0.02,Wunderground v.1.15,2013-01-14 21:26:00,
2013-01-14 16:31:00,53.0,40.7,30.04,NNE,30,3.0,4.0,63,0.00,,,0.02,Wunderground v.1.15,2013-01-14 21:31:00,
2013-01-14 16:36:00,52.8,40.5,30.04,North,358,2.0,9.0,63,0.00,,,0.02,Wunderground v.1.15,2013-01-14 21:36:00,
2013-01-14 16:41:00,52.7,40.5,30.04,NNE,19,3.0,4.0,63,0.00,,,0.02,Wunderground v.1.15,2013-01-14 21:41:00,
2013-01-14 16:46:00,52.6,40.8,30.05,NNW,347,5.0,5.0,64,0.00,,,0.02,Wunderground v.1.15,2013-01-14 21:46:00,
2013-01-14 16:51:00,52.3,40.9,30.05,East,79,2.0,3.0,65,0.00,,,0.02,Wunderground v.1.15,2013-01-14 21:51:00,
2013-01-14 16:56:00,52.0,39.8,30.06,East,90,4.0,10.0,63,0.00,,,0.02,Wunderground v.1.15,2013-01-14 21:56:00,
2013-01-14 17:01:00,51.8,40.0,30.05,NNE,32,5.0,5.0,64,0.00,,,0.02,Wunderground v.1.15,2013-01-14 22:01:00,
2013-01-14 17:06:00,51.5,38.1,30.05,North,4,4.0,12.0,60,0.00,,,0.02,Wunderground v.1.15,2013-01-14 22:06:00,
2013-01-14 17:11:00,51.3,37.9,30.06,NE,41,3.0,6.0,60,0.00,,,0.02,Wunderground v.1.15,2013-01-14 22:11:00,
2013-01-14 17:16:00,51.2,37.8,30.06,NNW,334,3.0,7.0,60,0.00,,,0.02,Wunderground v.1.15,2013-01-14 22:16:00,
2013-01-14 17:21:00,51.1,37.7,30.06,North,6,2.0,3.0,60,0.00,,,0.02,Wunderground v.1.15,2013-01-14 22:21:00,
2013-01-14 17:26:00,51.0,37.6,30.05,North,358,1.0,7.0,60,0.00,,,0.02,Wunderground v.1.15,2013-01-14 22:26:00,
2013-01-14 17:31:00,50.9,37.5,30.06,NW,321,0.0,3.0,60,0.00,,,0.02,Wunderground v.1.15,2013-01-14 22:31:00,
2013-01-14 17:36:00,50.8,37.8,30.06,North,350,3.0,5.0,61,0.00,,,0.02,Wunderground v.1.15,2013-01-14 22:36:00,
2013-01-14 17:41:00,50.7,36.5,30.05,NNW,328,4.0,11.0,58,0.00,,,0.02,Wunderground v.1.15,2013-01-14 22:41:00,
2013-01-14 17:46:00,50.6,35.9,30.07,NW,325,4.0,11.0,57,0.00,,,0.02,Wunderground v.1.15,2013-01-14 22:46:00,
2013-01-14 17:51:00,50.5,35.4,30.07,NNW,333,7.0,7.0,56,0.00,,,0.02,Wunderground v.1.15,2013-01-14 22:51:00,
2013-01-14 17:56:00,50.4,34.8,30.07,North,6,2.0,7.0,55,0.00,,,0.02,Wunderground v.1.15,2013-01-14 22:56:00,
2013-01-14 18:01:00,50.3,34.7,30.07,North,350,2.0,5.0,55,0.00,,,0.02,Wunderground v.1.15,2013-01-14 23:01:00,
2013-01-14 18:06:00,50.3,35.2,30.07,North,10,1.0,5.0,56,0.00,,,0.02,Wunderground v.1.15,2013-01-14 23:06:00,
2013-01-14 18:11:00,50.1,35.0,30.06,NNE,16,1.0,2.0,56,0.00,,,0.02,Wunderground v.1.15,2013-01-14 23:11:00,
2013-01-14 18:16:00,50.0,34.5,30.06,NNW,342,0.0,2.0,55,0.00,,,0.02,Wunderground v.1.15,2013-01-14 23:16:00,
2013-01-14 18:21:00,49.9,34.4,30.06,North,8,1.0,2.0,55,0.00,,,0.02,Wunderground v.1.15,2013-01-14 23:21:00,
2013-01-14 18:26:00,49.9,34.8,30.06,NNE,20,1.0,4.0,56,0.00,,,0.02,Wunderground v.1.15,2013-01-14 23:26:00,
2013-01-14 18:31:00,49.7,34.6,30.07,NNW,346,1.0,4.0,56,0.00,,,0.02,Wunderground v.1.15,2013-01-14 23:31:00,
2013-01-14 18:36:00,49.7,34.2,30.08,NNW,347,1.0,5.0,55,0.00,,,0.02,Wunderground v.1.15,2013-01-14 23:36:00,
2013-01-14 18:41:00,49.6,34.1,30.08,NNE,16,2.0,5.0,55,0.00,,,0.02,Wunderground v.1.15,2013-01-14 23:41:00,
2013-01-14 18:46:00,49.5,34.0,30.08,NNE,18,4.0,8.0,55,0.00,,,0.02,Wunderground v.1.15,2013-01-14 23:46:00,
2013-01-14 18:51:00,49.5,34.0,30.08,NNW,327,5.0,5.0,55,0.00,,,0.02,Wunderground v.1.15,2013-01-14 23:51:00,
2013-01-14 18:56:00,49.4,33.9,30.09,NW,323,4.0,6.0,55,0.00,,,0.02,Wunderground v.1.15,2013-01-14 23:56:00,
2013-01-14 19:01:00,49.3,33.8,30.10,NE,41,3.0,6.0,55,0.00,,,0.02,Wunderground v.1.15,2013-01-15 00:01:00,
2013-01-14 19:06:00,49.2,32.3,30.10,NNE,12,4.0,10.0,52,0.00,,,0.02,Wunderground v.1.15,2013-01-15 00:06:00,
2013-01-14 19:12:00,49.0,32.1,30.11,NNE,15,4.0,6.0,52,0.00,,,0.02,Wunderground v.1.15,2013-01-15 00:12:00,
2013-01-14 19:17:00,48.9,31.5,30.13,NE,36,5.0,10.0,51,0.00,,,0.02,Wunderground v.1.15,2013-01-15 00:17:00,
2013-01-14 19:22:00,48.9,31.1,30.13,North,6,1.0,5.0,50,0.00,,,0.02,Wunderground v.1.15,2013-01-15 00:22:00,
2013-01-14 19:27:00,48.8,31.0,30.13,NNE,15,7.0,8.0,50,0.00,,,0.02,Wunderground v.1.15,2013-01-15 00:27:00,
2013-01-14 19:32:00,48.6,30.3,30.14,NNE,27,4.0,5.0,49,0.00,,,0.02,Wunderground v.1.15,2013-01-15 00:32:00,
2013-01-14 19:37:00,48.4,30.6,30.15,NW,312,4.0,5.0,50,0.00,,,0.02,Wunderground v.1.15,2013-01-15 00:37:00,
2013-01-14 19:42:00,48.3,30.5,30.14,NNE,22,2.0,5.0,50,0.00,,,0.02,Wunderground v.1.15,2013-01-15 00:42:00,
2013-01-14 19:47:00,48.1,29.8,30.14,NNE,25,3.0,12.0,49,0.00,,,0.02,Wunderground v.1.15,2013-01-15 00:47:00,
2013-01-14 19:52:00,48.0,29.7,30.14,ENE,63,4.0,8.0,49,0.00,,,0.02,Wunderground v.1.15,2013-01-15 00:52:00,
2013-01-14 19:57:00,47.8,30.5,30.13,NNE,22,4.0,8.0,51,0.00,,,0.02,Wunderground v.1.15,2013-01-15 00:57:00,
2013-01-14 20:02:00,47.6,31.8,30.14,North,356,5.0,6.0,54,0.00,,,0.02,Wunderground v.1.15,2013-01-15 01:02:00,
2013-01-14 20:07:00,47.4,30.6,30.13,NNE,19,3.0,8.0,52,0.00,,,0.02,Wunderground v.1.15,2013-01-15 01:07:00,
2013-01-14 20:12:00,47.2,30.9,30.14,NNW,348,2.0,5.0,53,0.00,,,0.02,Wunderground v.1.15,2013-01-15 01:12:00,
2013-01-14 20:17:00,47.1,30.8,30.13,North,8,3.0,6.0,53,0.00,,,0.02,Wunderground v.1.15,2013-01-15 01:17:00,
2013-01-14 20:22:00,47.1,31.3,30.14,NNW,339,5.0,5.0,54,0.00,,,0.02,Wunderground v.1.15,2013-01-15 01:22:00,
2013-01-14 20:27:00,47.1,30.8,30.14,NNE,27,2.0,9.0,53,0.00,,,0.02,Wunderground v.1.15,2013-01-15 01:27:00,
2013-01-14 20:32:00,47.0,30.7,30.14,NNE,18,2.0,7.0,53,0.00,,,0.02,Wunderground v.1.15,2013-01-15 01:32:00,
2013-01-14 20:37:00,46.8,32.4,30.14,NNW,340,1.0,7.0,57,0.00,,,0.02,Wunderground v.1.15,2013-01-15 01:37:00,
2013-01-14 20:42:00,46.6,32.6,30.14,NNE,16,3.0,4.0,58,0.00,,,0.02,Wunderground v.1.15,2013-01-15 01:42:00,
2013-01-14 20:47:00,46.4,31.5,30.14,NNW,340,5.0,7.0,56,0.00,,,0.02,Wunderground v.1.15,2013-01-15 01:47:00,
2013-01-14 20:52:00,46.3,32.3,30.14,ENE,60,1.0,3.0,58,0.00,,,0.02,Wunderground v.1.15,2013-01-15 01:52:00,
2013-01-14 20:57:00,46.2,32.2,30.14,NNE,16,3.0,5.0,58,0.00,,,0.02,Wunderground v.1.15,2013-01-15 01:57:00,
2013-01-14 21:02:00,46.1,32.1,30.14,NNW,339,2.0,3.0,58,0.00,,,0.02,Wunderground v.1.15,2013-01-15 02:02:00,
2013-01-14 21:07:00,46.0,31.6,30.14,ENE,68,2.0,9.0,57,0.00,,,0.02,Wunderground v.1.15,2013-01-15 02:07:00,
2013-01-14 21:12:00,45.9,31.1,30.14,NE,51,3.0,10.0,56,0.00,,,0.02,Wunderground v.1.15,2013-01-15 02:12:00,
2013-01-14 21:17:00,45.8,31.4,30.14,ENE,58,4.0,10.0,57,0.00,,,0.02,Wunderground v.1.15,2013-01-15 02:17:00,
2013-01-14 21:22:00,45.6,31.2,30.14,NNE,18,4.0,8.0,57,0.00,,,0.02,Wunderground v.1.15,2013-01-15 02:22:00,
2013-01-14 21:27:00,45.5,31.1,30.15,North,350,2.0,9.0,57,0.00,,,0.02,Wunderground v.1.15,2013-01-15 02:27:00,
2013-01-14 21:32:00,45.3,31.4,30.16,NE,49,4.0,12.0,58,0.00,,,0.02,Wunderground v.1.15,2013-01-15 02:32:00,
2013-01-14 21:37:00,45.1,31.6,30.16,NW,316,1.0,12.0,59,0.00,,,0.02,Wunderground v.1.15,2013-01-15 02:37:00,
2013-01-14 21:42:00,44.8,32.6,30.17,NE,51,4.0,9.0,62,0.00,,,0.02,Wunderground v.1.15,2013-01-15 02:42:00,
2013-01-14 21:47:00,44.3,33.3,30.16,NNW,332,2.0,12.0,65,0.00,,,0.02,Wunderground v.1.15,2013-01-15 02:47:00,
2013-01-14 21:52:00,43.7,33.5,30.16,NW,309,4.0,9.0,67,0.00,,,0.02,Wunderground v.1.15,2013-01-15 02:52:00,
2013-01-14 21:57:00,43.2,33.7,30.16,NNW,335,2.0,12.0,69,0.00,,,0.02,Wunderground v.1.15,2013-01-15 02:57:00,
2013-01-14 22:02:00,42.7,34.3,30.16,North,350,3.0,8.0,72,0.00,,,0.02,Wunderground v.1.15,2013-01-15 03:02:00,
2013-01-14 22:07:00,42.3,35.3,30.17,North,356,1.0,8.0,76,0.00,,,0.02,Wunderground v.1.15,2013-01-15 03:07:00,
2013-01-14 22:12:00,41.8,35.4,30.16,North,9,3.0,5.0,78,0.00,,,0.02,Wunderground v.1.15,2013-01-15 03:12:00,
2013-01-14 22:17:00,41.4,35.7,30.17,NNW,338,3.0,8.0,80,0.00,,,0.03,Wunderground v.1.15,2013-01-15 03:17:00,
2013-01-14 22:22:00,40.9,35.8,30.17,NNE,16,3.0,3.0,82,0.10,,,0.04,Wunderground v.1.15,2013-01-15 03:22:00,
2013-01-14 22:27:00,40.4,35.6,30.17,NE,51,2.0,6.0,83,0.10,,,0.04,Wunderground v.1.15,2013-01-15 03:27:00,
2013-01-14 22:32:00,40.1,35.7,30.17,NNW,335,1.0,5.0,84,0.10,,,0.05,Wunderground v.1.15,2013-01-15 03:32:00,
2013-01-14 22:37:00,39.9,36.1,30.17,North,9,0.0,5.0,86,0.08,,,0.06,Wunderground v.1.15,2013-01-15 03:37:00,
2013-01-14 22:42:00,39.7,35.9,30.17,NNE,16,1.0,4.0,86,0.08,,,0.06,Wunderground v.1.15,2013-01-15 03:42:00,
2013-01-14 22:47:00,39.6,36.0,30.18,NE,39,3.0,6.0,87,0.05,,,0.07,Wunderground v.1.15,2013-01-15 03:47:00,
2013-01-14 22:52:00,39.5,36.0,30.17,NNE,18,2.0,5.0,87,0.05,,,0.07,Wunderground v.1.15,2013-01-15 03:52:00,
2013-01-14 22:57:00,39.4,35.9,30.17,NNE,23,1.0,5.0,87,0.05,,,0.07,Wunderground v.1.15,2013-01-15 03:57:00,
2013-01-14 23:02:00,39.4,36.1,30.17,NNE,18,0.0,2.0,88,0.04,,,0.07,Wunderground v.1.15,2013-01-15 04:02:00,
2013-01-14 23:07:00,39.3,36.0,30.18,North,4,1.0,3.0,88,0.00,,,0.07,Wunderground v.1.15,2013-01-15 04:07:00,
2013-01-14 23:12:00,39.3,36.3,30.18,NW,319,3.0,4.0,89,0.00,,,0.08,Wunderground v.1.15,2013-01-15 04:12:00,
2013-01-14 23:17:00,39.3,36.3,30.18,North,352,1.0,4.0,89,0.00,,,0.08,Wunderground v.1.15,2013-01-15 04:17:00,
2013-01-14 23:22:00,39.3,36.3,30.19,North,10,2.0,2.0,89,0.00,,,0.08,Wunderground v.1.15,2013-01-15 04:22:00,
2013-01-14 23:27:00,39.2,36.2,30.19,NE,34,2.0,2.0,89,0.00,,,0.08,Wunderground v.1.15,2013-01-15 04:27:00,
2013-01-14 23:32:00,39.2,36.2,30.19,NE,40,0.0,2.0,89,0.00,,,0.08,Wunderground v.1.15,2013-01-15 04:32:00,
2013-01-14 23:37:00,39.2,36.5,30.19,NNE,25,1.0,3.0,90,0.00,,,0.08,Wunderground v.1.15,2013-01-15 04:37:00,
2013-01-14 23:42:00,39.2,36.2,30.18,North,5,1.0,5.0,89,0.00,,,0.08,Wunderground v.1.15,2013-01-15 04:42:00,
2013-01-14 23:47:00,39.2,36.2,30.17,NE,47,3.0,5.0,89,0.00,,,0.09,Wunderground v.1.15,2013-01-15 04:47:00,
2013-01-14 23:52:00,39.2,36.2,30.17,North,352,2.0,5.0,89,0.00,,,0.09,Wunderground v.1.15,2013-01-15 04:52:00,
2013-01-14 23:57:00,39.2,35.9,30.17,NNW,340,2.0,5.0,88,0.00,,,0.09,Wunderground v.1.15,2013-01-15 04:57:00,